Weather History for Sussex, NJ

Change the Weather History Date:

Wednesday, November 21, 2012

  Actual Average Record
Temperature  
Mean Temperature 39 °F -  
Max Temperature 52 °F 48 °F 73 °F (1985)
Min Temperature 26 °F 26 °F 13 °F (1966)
Degree Days  
Heating Degree Days 26    
Moisture  
Dew Point 26 °F    
Average Humidity 70    
Maximum Humidity 92    
Minimum Humidity 31    
Precipitation  
Precipitation 0.00 in - - ()
Sea Level Pressure  
Sea Level Pressure 30.21 in    
Wind  
Wind Speed 1 mph (NE)    
Max Wind Speed 8 mph    
Max Gust Speed -    
Visibility 10 miles    
Events      
Averages and records for this station are not official NWS values.
T = Trace of Precipitation, MM = Missing Value Source: NWS Daily Summary

Daily Weather History Graph

Daily Weather History Graph

Search for Another Location

Airport:

Trip Planner

Search our weather history database for the weather conditions in past years. The results will help you decide how hot, cold, wet, or windy it might be!

Date:

Astronomy

Nov. 21, 2012 Rise Set
Actual Time 6:54 AM EST 4:34 PM EST
Civil Twilight 6:24 AM EST 5:04 PM EST
Nautical Twilight 5:50 AM EST 5:38 PM EST
Astronomical Twilight 5:17 AM EST 6:11 PM EST
Moon 12:53 PM EST (11/21) 12:06 AM EST (11/21)
Length of Visible Light 10h 40m
Length of Day
9h 40m
First Quarter, 61% of the Moon is Illuminated
Nov 21
First Quarter
Nov 28
Full
Dec 6
Last Quarter
Dec 13
New
Dec 20
First Quarter

Hourly Weather History & Observations

Time (EST) Temp. Windchill Dew Point Humidity Pressure Visibility Wind Dir Wind Speed Gust Speed Precip Events Conditions
12:53 AM 32.0 °F - 27.0 °F 82% 30.15 in 10.0 mi Calm Calm - N/A   Clear
1:53 AM 30.9 °F - 28.0 °F 89% 30.16 in 10.0 mi Calm Calm - N/A   Clear
2:53 AM 30.9 °F - 27.0 °F 85% 30.17 in 10.0 mi Calm Calm - N/A   Clear
3:53 AM 30.9 °F - 28.0 °F 89% 30.18 in 10.0 mi Calm Calm - N/A   Clear
4:53 AM 30.0 °F - 27.0 °F 88% 30.19 in 9.0 mi Calm Calm - N/A   Clear
5:53 AM 28.0 °F - 25.0 °F 88% 30.20 in 8.0 mi Calm Calm - N/A   Clear
6:53 AM 27.0 °F - 25.0 °F 92% 30.22 in 7.0 mi Calm Calm - N/A   Clear
7:53 AM 30.9 °F - 28.0 °F 89% 30.23 in 7.0 mi Calm Calm - N/A   Clear
8:53 AM 37.9 °F - 30.0 °F 73% 30.24 in 9.0 mi Calm Calm - N/A   Clear
9:53 AM 44.1 °F 39.5 °F 28.9 °F 55% 30.24 in 10.0 mi NNE 8.1 mph - N/A   Clear
10:53 AM 46.9 °F - 30.0 °F 52% 30.23 in 10.0 mi East 5.8 mph - N/A   Clear
11:53 AM 48.9 °F - 28.0 °F 44% 30.21 in 10.0 mi East 6.9 mph - N/A   Clear
12:53 PM 51.1 °F - 26.1 °F 38% 30.19 in 10.0 mi NNE 5.8 mph - N/A   Clear
1:53 PM 52.0 °F - 26.1 °F 37% 30.19 in 10.0 mi Variable 4.6 mph - N/A   Clear
2:53 PM 52.0 °F - 21.9 °F 31% 30.19 in 10.0 mi NE 5.8 mph - N/A   Clear
3:53 PM 50.0 °F - 24.1 °F 36% 30.19 in 10.0 mi NNE 3.5 mph - N/A   Clear
4:53 PM 43.0 °F - 25.0 °F 49% 30.20 in 10.0 mi Calm Calm - N/A   Clear
5:53 PM 37.9 °F - 26.1 °F 62% 30.23 in 10.0 mi Calm Calm - N/A   Clear
6:53 PM 34.0 °F - 26.1 °F 73% 30.24 in 10.0 mi Calm Calm - N/A   Clear
7:53 PM 30.9 °F - 24.1 °F 76% 30.26 in 10.0 mi Calm Calm - N/A   Clear
8:53 PM 28.9 °F - 25.0 °F 85% 30.25 in 10.0 mi Calm Calm - N/A   Clear
9:53 PM 28.0 °F - 24.1 °F 85% 30.25 in 10.0 mi Calm Calm - N/A   Clear
10:53 PM 26.1 °F - 23.0 °F 88% 30.25 in 10.0 mi Calm Calm - N/A   Clear
11:53 PM 26.1 °F - 23.0 °F 88% 30.25 in 10.0 mi Calm Calm - N/A   Clear